Theta_e
311 311 310 309 309 308 308 307 307 308 309 310 310 309 308 306 307 307 307 307 307 307 306 306 306 306 305 305 305 305 307 310 310 313 315 315 315 314 320 321 322 322 325 323 325 325 324
311 311 310 309 309 308 308 307 307 306 307 309 310 309 307 306 305 306 306 306 306 306 306 307 306 305 305 304 305 306 305 307 307 310 315 316 315 314 318 321 322 320 322 322 325 325 324
311 310 310 309 308 308 308 307 307 306 306 307 308 308 308 307 305 305 305 305 305 306 307 306 306 304 305 303 305 305 305 307 307 307 315 315 315 315 318 320 318 321 323 323 324 323 324
310 310 310 309 308 308 308 308 307 307 306 305 306 305 307 307 306 305 304 306 306 306 306 306 306 305 303 304 305 305 305 306 311 311 313 314 316 316 316 315 317 320 320 326 324 326 325
309 310 309 308 308 308 307 307 307 306 306 307 305 305 305 307 306 306 303 303 305 305 306 306 305 303 303 306 305 304 304 306 313 314 313 315 316 317 315 316 319 320 319 321 325 325 326
308 309 309 308 307 308 308 307 307 306 307 306 305 304 304 305 306 305 303 303 303 304 304 305 305 302 303 305 305 307 308 311 313 314 315 317 317 316 315 317 323 321 318 319 321 323 324
308 308 308 308 307 307 307 307 307 306 306 306 305 304 304 305 306 306 304 302 299 300 302 303 302 303 304 304 307 307 307 311 314 314 316 315 318 319 315 315 314 314 316 319 318 318 319
307 306 308 308 307 307 307 307 306 306 306 306 305 304 304 305 306 306 302 300 301 302 306 304 304 304 305 307 309 309 309 312 317 315 313 317 316 315 315 315 315 315 316 318 317 316 318
306 306 307 307 306 306 306 306 306 306 305 305 304 304 304 304 305 304 302 302 303 304 305 307 306 307 308 309 311 310 309 311 314 316 315 316 314 315 317 315 315 314 315 314 317 315 314
306 305 306 306 306 306 306 305 305 305 305 304 304 304 304 305 304 302 302 301 303 304 297 309 309 307 309 309 310 309 309 310 314 318 317 316 315 317 319 317 314 317 313 313 314 316 318
305 303 305 306 306 306 305 305 305 305 304 304 303 303 304 304 303 303 303 302 304 301 301 306 308 307 308 311 309 310 310 313 314 317 315 318 316 317 319 317 314 316 311 312 313 313 314
305 303 304 305 305 305 305 305 304 304 304 304 303 304 304 305 304 304 302 304 303 298 306 310 311 310 311 313 312 311 314 313 314 315 315 316 313 315 317 316 313 311 311 310 309 311 311
305 302 303 305 305 305 304 304 304 304 304 303 304 305 305 305 305 304 304 302 299 302 303 311 314 309 311 314 313 311 312 313 317 317 319 318 316 313 314 318 315 313 315 316 318 314 313
304 302 302 304 304 304 304 304 304 304 304 303 303 305 305 305 305 305 304 298 302 303 307 309 314 312 313 314 314 315 313 316 314 314 315 315 320 316 312 314 316 314 314 313 316 317 313
304 301 302 302 303 303 303 304 304 304 303 303 303 304 304 306 305 305 303 297 301 303 311 314 315 316 316 315 313 313 314 316 314 311 314 311 315 313 314 313 313 316 313 308 308 305 304
302 301 301 300 303 303 303 303 303 303 302 303 305 304 305 305 305 305 300 306 303 306 311 313 314 314 315 314 315 315 314 313 316 313 309 311 314 314 314 313 312 314 311 314 311 311 314
302 301 300 300 301 300 302 302 303 302 301 303 305 304 305 305 305 306 300 303 307 308 310 310 311 312 313 315 314 315 314 314 315 313 309 309 310 314 314 316 318 318 318 314 311 308 309
301 301 299 300 299 299 300 302 302 302 301 303 301 305 305 305 310 308 301 305 310 310 309 309 309 310 312 312 314 314 313 311 313 313 312 310 310 315 315 314 314 313 317 315 318 312 306
301 300 299 300 299 299 299 299 302 299 300 303 300 305 305 306 307 302 305 310 311 311 310 309 309 309 309 311 312 312 311 309 313 312 312 310 308 315 315 314 314 317 315 316 315 311 305
301 299 300 299 299 299 298 299 300 295 300 304 299 303 308 308 307 309 309 310 310 309 310 308 308 308 309 310 308 311 311 310 310 313 314 310 308 307 310 309 310 315 315 315 316 318 316
300 299 300 299 299 298 298 298 298 295 299 302 295 301 301 303 308 305 307 309 310 312 309 308 308 308 309 310 310 311 310 310 309 313 311 312 308 304 307 307 311 312 313 316 317 317 318
299 300 299 299 299 298 298 298 298 295 295 297 295 298 296 299 300 304 307 310 312 310 310 310 309 309 308 308 308 309 309 309 311 308 308 305 308 303 303 307 309 310 309 310 314 316 316
300 300 299 298 299 299 299 298 298 297 294 293 293 295 296 298 298 304 303 304 309 309 310 309 308 310 308 308 308 306 306 305 306 307 307 307 306 302 301 305 306 308 308 308 310 311 313
300 300 299 298 298 298 298 298 298 297 297 295 294 293 295 302 298 299 298 299 305 306 309 309 310 310 308 305 305 304 303 305 306 305 304 304 303 300 299 302 302 304 305 306 307 308 309
301 300 299 298 297 298 298 298 298 297 297 296 295 293 291 294 295 296 296 299 303 305 308 308 310 308 306 306 307 309 307 308 308 306 306 304 304 304 302 301 304 305 309 307 308 309 306
302 300 299 297 297 298 298 298 297 297 297 297 296 295 291 292 294 295 295 296 299 299 304 306 305 300 307 308 309 311 311 308 309 310 307 308 306 304 305 306 308 303 306 307 307 310 308
302 301 300 297 297 297 297 299 297 297 297 297 296 296 293 293 293 294 294 294 294 294 296 302 301 304 305 308 310 310 306 305 309 308 311 312 311 309 308 307 306 303 304 305 309 308 308
302 302 300 297 297 297 297 297 297 296 297 297 296 296 295 291 292 294 294 294 294 293 296 297 304 306 309 310 311 309 305 303 306 306 307 309 310 308 308 310 307 304 309 312 307 308 309
301 302 300 297 297 297 298 297 297 297 297 296 297 295 296 295 293 295 295 295 295 295 294 293 299 302 303 308 305 304 307 301 302 306 303 307 305 306 306 306 303 303 307 307 307 308 309
Wind_Speed
11 12 14 15 16 17 18 18 18 19 19 20 18 18 16 15 12 11 10 8 7 7 6 7 7 3 1 1 5 7 4 6 4 10 10 6 6 4 6 7 5 2 7 6 3 5 3
10 11 13 15 16 17 17 17 18 19 19 19 19 17 16 13 11 8 8 8 8 7 6 7 5 2 2 2 3 5 8 7 5 9 11 8 6 8 5 6 5 6 1 7 4 3 3
9 11 12 14 15 16 16 17 18 18 18 18 18 17 16 12 11 8 7 8 8 9 9 9 6 2 1 7 4 10 10 8 14 15 12 15 5 6 3 5 4 2 6 4 8 10 1
8 10 11 13 15 15 16 17 17 18 18 19 18 16 15 13 10 8 8 9 9 9 12 8 8 2 4 2 6 6 4 16 14 16 17 17 10 1 1 4 5 4 4 6 4 10 3
8 9 10 11 13 15 15 16 18 18 19 17 18 17 15 13 12 10 10 10 7 6 6 3 3 1 5 3 4 5 14 14 16 18 15 10 5 4 3 7 4 3 4 5 6 16 9
9 8 9 10 12 14 16 17 18 19 19 19 20 20 16 13 13 12 12 9 4 3 2 4 8 3 2 7 1 6 5 4 9 12 6 4 3 3 3 6 16 8 4 2 3 12 10
9 8 9 9 12 14 16 17 18 19 20 19 19 21 18 14 13 12 11 1 4 3 1 3 6 4 4 4 3 8 4 4 12 11 2 9 7 11 5 4 5 8 5 5 2 6 3
12 9 9 9 11 14 16 17 19 19 20 20 19 19 17 13 11 10 5 5 2 3 2 2 5 5 6 4 1 4 5 3 7 14 13 5 8 5 7 5 5 7 7 4 1 3 8
12 9 9 9 10 13 16 17 19 20 21 20 19 19 17 10 8 6 2 5 5 1 1 2 3 3 4 5 3 4 4 0 8 14 14 8 7 7 6 4 5 2 7 5 4 3 2
13 11 9 9 10 12 15 18 19 21 21 20 20 18 15 7 4 2 2 6 4 2 4 5 3 2 2 2 4 3 3 3 4 4 9 4 4 8 6 5 5 2 5 6 6 6 4
13 11 9 9 11 12 15 18 20 20 21 21 20 18 11 5 1 2 2 6 2 3 4 4 5 4 5 3 4 7 3 5 3 3 4 3 8 9 4 6 4 2 3 5 3 4 3
12 11 9 8 11 13 15 18 19 21 22 23 22 15 3 5 4 2 5 4 1 5 1 4 3 5 2 3 4 2 4 5 3 3 7 3 3 4 3 2 5 7 6 7 4 3 2
12 10 8 7 10 13 15 17 18 21 23 24 21 7 8 7 1 7 5 3 4 5 3 1 1 1 2 2 4 1 3 2 3 5 8 7 3 2 2 6 3 3 4 3 2 2 4
13 10 8 6 9 11 14 17 18 21 23 23 12 6 7 2 5 7 1 4 5 4 3 3 5 3 2 3 3 3 5 2 1 5 5 4 4 1 5 4 6 3 4 4 5 3 4
13 10 8 6 8 11 13 16 18 21 23 21 3 5 6 4 7 5 2 3 5 5 3 5 3 2 2 2 3 2 1 0 1 1 5 5 2 2 4 2 2 4 3 4 6 3 3
14 11 8 6 7 10 12 16 17 19 20 14 4 4 3 7 6 2 3 3 0 2 2 3 3 3 3 4 1 2 4 2 3 1 1 3 5 1 1 2 5 3 5 3 2 2 4
14 11 7 4 7 10 11 15 17 18 18 4 3 3 2 3 4 2 2 5 4 5 3 1 1 3 4 4 2 1 3 2 1 3 5 3 4 3 3 4 5 2 2 3 3 4 3
15 11 6 4 6 9 12 13 16 18 13 4 4 2 3 3 1 2 2 4 3 1 1 2 1 0 5 5 3 3 5 3 6 6 5 2 4 3 2 3 3 2 6 5 4 4 1
16 11 6 3 6 8 11 13 16 18 7 4 3 1 2 1 1 2 3 2 3 2 2 1 1 1 1 3 3 2 2 3 6 4 5 5 1 4 2 2 1 6 9 6 3 2 6
17 11 6 2 4 8 10 13 16 16 3 2 3 1 2 1 1 2 2 3 1 1 0 1 1 1 2 3 3 4 2 2 2 2 9 3 3 5 6 4 4 6 11 16 13 7 8
18 12 8 3 2 7 9 12 17 14 3 2 3 1 0 2 2 3 2 2 1 1 1 2 3 1 1 2 2 2 3 3 4 6 4 2 3 3 3 2 3 3 6 13 15 18 10
19 14 9 3 1 5 8 11 17 14 3 6 3 2 2 0 2 3 2 2 2 3 1 1 3 2 2 3 4 6 4 1 3 1 4 0 1 3 5 4 4 5 7 9 15 17 16
21 16 10 6 4 7 10 12 15 18 3 5 2 3 2 2 1 1 0 2 4 2 2 4 1 1 2 2 1 2 3 4 5 8 6 6 6 3 4 2 3 6 14 13 7 6 14
22 18 12 8 6 6 8 11 14 16 18 8 4 3 2 1 1 1 2 2 1 1 2 3 2 1 1 5 2 4 6 5 6 3 4 6 5 3 3 0 1 6 2 5 11 10 11
24 19 14 9 8 8 7 8 11 13 13 19 7 3 2 1 1 1 4 3 4 4 2 1 3 1 3 2 3 3 3 2 1 3 4 2 4 2 3 2 6 2 1 4 5 5 5
26 21 16 12 10 8 7 7 8 10 10 11 16 6 3 3 2 2 2 3 3 4 5 3 4 6 1 2 2 3 3 4 2 1 2 3 3 3 2 2 4 5 2 3 4 3 3
28 23 17 14 11 8 5 5 7 8 8 10 10 12 4 3 2 4 4 1 2 2 1 3 6 6 2 2 2 2 2 3 3 4 4 3 2 4 3 2 6 7 5 2 4 4 4
29 24 19 16 12 10 8 6 7 9 10 9 9 11 5 2 3 2 4 2 3 2 2 4 3 1 2 1 2 2 2 3 1 0 5 6 5 3 3 4 6 4 0 3 5 3 3
30 24 20 17 13 11 9 6 6 8 9 8 5 6 6 3 3 2 2 3 4 3 2 2 1 3 4 1 1 2 1 1 2 2 1 2 5 4 7 5 5 3 5 4 3 4 4
Wind_Direction
343 348 350 349 349 350 354 354 349 350 344 342 347 350 351 356 3 11 9 6 1 359 356 351 347 1 11 22 262 313 338 142 222 218 207 199 152 172 162 146 143 147 168 164 123 102 41
334 341 346 348 347 350 351 351 351 350 348 341 340 345 350 346 344 350 354 352 343 339 348 351 358 358 19 279 309 313 286 279 327 216 198 204 181 204 162 150 145 180 176 192 156 148 349
328 336 339 345 348 347 349 351 354 352 346 346 341 339 346 341 342 340 345 343 339 330 321 317 313 314 276 246 303 297 273 259 290 283 184 202 251 189 119 114 121 91 100 60 202 192 145
319 326 332 344 345 344 347 351 350 347 350 345 339 332 336 342 326 333 340 337 328 331 320 293 314 250 250 264 343 275 240 295 263 201 186 201 231 166 214 106 63 95 96 163 184 143 207
306 315 324 338 337 339 345 347 348 349 345 345 341 335 329 332 326 320 329 326 316 350 3 328 301 268 291 95 13 353 252 262 150 154 177 189 197 190 81 113 112 201 166 164 148 184 135
295 305 316 330 331 332 337 340 342 342 342 347 341 333 327 321 323 319 321 315 286 329 321 292 278 314 256 325 335 275 269 149 137 137 104 172 158 148 100 161 191 162 100 346 129 187 173
283 295 308 320 328 330 334 336 338 342 341 343 338 333 327 320 311 317 324 333 21 16 20 249 268 252 259 339 72 307 2 133 127 140 197 181 167 189 133 133 126 122 110 153 200 171 149
278 288 300 311 323 326 331 334 335 337 336 339 336 332 328 315 309 308 307 105 172 164 343 250 281 268 269 329 161 350 347 88 165 147 161 146 182 164 139 136 113 116 127 165 281 120 172
274 281 290 303 317 327 330 329 333 336 334 337 334 330 329 315 304 284 275 144 131 115 111 268 230 277 295 333 40 19 22 155 71 161 148 133 164 144 134 136 109 76 141 164 165 102 50
269 274 285 301 313 323 327 331 333 333 333 335 332 333 327 307 276 218 242 174 160 82 70 334 316 294 293 351 57 15 13 75 70 116 120 108 165 144 157 111 128 104 166 135 129 147 201
262 269 283 304 312 320 323 326 330 332 333 334 333 329 325 226 309 219 153 156 197 79 50 309 305 318 300 60 181 24 3 21 138 79 95 160 153 140 120 152 111 149 109 122 100 105 111
254 265 280 304 314 320 324 325 330 333 333 337 332 328 282 180 227 209 152 154 146 48 345 340 314 357 332 51 77 41 287 230 22 105 95 85 46 73 133 70 90 155 81 57 60 90 346
248 257 274 300 314 321 327 329 332 336 338 340 336 334 179 168 142 165 168 87 20 101 258 181 105 106 30 342 96 129 25 14 156 171 119 80 37 18 57 102 57 79 94 40 30 355 221
242 252 267 295 313 324 328 330 336 339 341 345 348 109 151 147 138 146 114 46 65 235 189 207 113 175 146 196 106 142 134 127 203 159 87 143 154 67 346 115 158 149 147 153 186 199 246
235 244 257 290 316 327 328 331 340 342 344 348 84 116 144 151 153 164 75 46 205 215 164 153 123 161 101 72 111 99 115 161 105 57 122 122 86 60 49 52 72 194 152 159 104 33 50
229 235 251 294 320 331 335 335 345 343 346 352 135 130 70 153 164 142 76 281 307 238 273 132 153 151 159 168 95 204 177 233 133 90 183 150 109 20 100 137 30 96 157 83 28 183 252
220 227 246 290 322 337 340 343 346 346 346 21 115 89 141 144 170 132 151 223 262 230 260 158 199 136 160 177 145 156 172 329 165 101 70 116 98 123 106 201 172 148 146 66 133 150 187
211 217 238 285 326 336 343 350 347 348 348 101 100 71 182 150 222 229 207 187 220 243 173 304 312 191 154 159 142 202 205 246 171 150 118 98 103 122 153 1 10 188 203 169 198 229 243
204 208 223 280 321 339 346 352 351 349 351 129 97 114 161 148 229 264 287 218 210 169 216 197 275 270 62 120 106 159 124 337 156 122 153 173 72 109 113 321 267 226 212 212 119 104 199
197 197 204 239 324 345 355 358 356 354 23 117 100 105 163 219 171 294 336 275 195 131 293 303 295 355 36 38 35 137 111 34 154 94 78 82 138 157 181 189 142 203 213 211 210 230 244
190 187 191 207 340 357 2 7 8 9 81 120 33 189 302 218 190 329 297 303 199 71 95 38 3 293 198 123 45 57 86 106 73 155 74 124 211 135 263 269 166 209 202 199 213 232 231
183 179 178 176 60 37 31 13 18 21 96 83 112 103 1 199 298 252 34 66 354 26 124 98 150 345 220 178 181 190 129 169 179 78 120 152 316 68 332 351 246 268 245 227 231 239 242
179 174 167 160 119 71 46 29 29 30 56 93 90 95 102 328 352 142 145 9 44 317 69 87 188 139 199 256 175 181 176 161 167 154 164 156 145 119 250 296 288 275 229 209 207 230 224
177 172 163 158 140 87 55 44 38 42 52 88 87 100 92 249 92 130 350 283 295 152 171 300 42 83 327 290 127 66 57 93 125 112 141 144 129 120 196 19 287 243 190 182 212 240 223
175 168 159 155 136 99 77 64 50 47 52 69 72 100 113 108 341 6 8 345 320 320 207 261 15 31 300 11 70 76 0 46 195 200 182 149 128 100 133 210 296 1 195 138 169 280 213
172 167 157 152 137 110 101 73 58 46 52 76 51 53 96 112 19 346 3 5 14 345 345 346 329 325 338 106 88 164 198 203 237 123 141 157 79 120 150 156 250 242 252 180 139 285 238
169 164 156 153 137 128 111 84 51 49 63 87 62 36 81 88 353 31 54 26 323 35 283 323 338 338 1 96 119 181 239 186 167 188 161 148 109 175 202 229 282 249 268 175 78 246 296
166 161 160 154 144 133 117 93 71 71 78 95 81 48 64 107 321 28 22 34 343 67 86 346 301 7 32 139 169 180 162 222 109 90 172 171 168 193 184 208 275 201 90 176 221 284 261
166 163 161 156 147 142 130 105 93 80 73 88 87 47 44 96 203 330 354 349 218 231 125 1 112 315 15 281 39 90 186 75 145 258 37 218 186 187 180 215 240 229 232 245 197 233 281